Вернуться в каталог

CZ-4C DEB

АктивенSSO
NORAD 43263·DEBRIS·🇨🇳 China

Запущен Mar 31, 2018 с Taiyuan Satellite Launch Center

Loading…

Ближайшие Пролёты (ближайшие 24 часа)

TLE

СвежийSource: Space-Track

Эпоха: Sep 13, 2026, 22:41 UTC

1 43263U 18031E   26256.94514389  .00001863  00000-0  24384-3 0  9997
2 43263  97.6970 257.2215 0039364  51.4781 308.9951 14.81019277454506

Отслеживайте CZ-4C DEB в реальном времени с AllMySat

Download on the App Store